Regional Weather Roundup
Issued by NWS

Home | Current Version | Previous Version | Graphics & Text | Print | Product List | Glossary On
Versions: 1 2 3 4 5 6 7 8 9 10 11 12 13 14 15 16 17 18 19 20 21 22 23 24 25 26 27 28 29 30 31 32 33 34 35 36 37 38 39 40 41 42 43 44 45 46 47 48 49 50
611
ASUS43 KOAX 260310
RWRNE

WEATHER ROUNDUP FOR NEBRASKA
NATIONAL WEATHER SERVICE OMAHA NE
1000 PM CDT MON JUL 25 2016

NOTES: SATELLITE DATA IS BEING USED TO AUGMENT CLOUD COVER ABOVE
       12000 FEET.
       "FAIR" INDICATES FEW OR NO CLOUDS BELOW 12,000 FEET WITH NO
       SIGNIFICANT WEATHER AND/OR OBSTRUCTIONS TO VISIBILITY.

  * THESE STATIONS DO NOT REPORT WEATHER SUCH AS RAIN...SNOW OR FOG.

NEZ001>004-019>022-054>056-260400-
NEBRASKA PANHANDLE

CITY           SKY/WX    TMP DP  RH WIND       PRES   REMARKS
SCOTTSBLUFF    CLEAR     81  61  50 SE13      30.07R
ALLIANCE       CLEAR     74  62  66 SE10      30.09R
CHADRON        CLEAR     83  59  44 SE22      30.01S
KIMBALL        CLEAR     74  64  70 SE12G17   30.14S
SIDNEY         CLEAR     74  61  63 S14       30.14R
$$

NEZ057>060-069>072-079>082-260400-
SOUTHWEST NEBRASKA

CITY           SKY/WX    TMP DP  RH WIND       PRES   REMARKS
NORTH PLATTE   CLEAR     71  67  87 SE8       30.10R
IMPERIAL       CLEAR     73  64  73 SE7       30.09F
LEXINGTON      CLEAR     75  68  77 SE3       30.11R
MCCOOK         CLEAR     76  62  62 SE9       30.09R
OGALLALA       CLEAR     76  63  63 SE3       30.09S
$$

NEZ005>010-023>029-035>040-094-260400-
NORTH CENTRAL NEBRASKA

CITY           SKY/WX    TMP DP  RH WIND       PRES   REMARKS
VALENTINE      CLEAR     76  60  57 SE9       30.06R
AINSWORTH      CLEAR     74  61  63 S7        30.09R
BROKEN BOW     PTCLDY    72  63  73 SE6       30.11R
O`NEILL        CLEAR     74  62  64 SE7       30.10R
ORD            CLEAR     76  62  62 SE7       30.09R
THEDFORD       CLEAR     75  64  67 SE7       30.11R
$$

NEZ041-046>049-061>064-073>077-083>087-260400-
SOUTH CENTRAL NEBRASKA

CITY           SKY/WX    TMP DP  RH WIND       PRES   REMARKS
GRAND ISLAND   CLEAR     73  64  73 SE6       30.11R
AURORA         CLEAR     70  65  85 SE6       30.11R
HASTINGS       CLEAR     76  63  64 E7        30.11R
HEBRON         CLEAR     72  62  69 CALM      30.09R
HOLDREGE       CLEAR     73  66  80 E7        30.10R
KEARNEY *      CLEAR     72  61  68 SE7       30.11R
YORK           CLEAR     72  63  73 CALM      30.11R
$$

NEZ011>018-030>034-042>045-260400-
NORTHEAST NEBRASKA

CITY           SKY/WX    TMP DP  RH WIND       PRES   REMARKS
NORFOLK        CLEAR     71  63  75 S7        30.09R
ALBION         CLEAR     71  64  79 SE5       30.10R
BLAIR          PTCLDY    76  66  71 SE3       30.09R
FREMONT        CLEAR     76  64  65 E5        30.09R
TEKAMAH        CLEAR     73  67  81 CALM      30.07R
WAYNE          CLEAR     68  65  90 S3        30.09R
$$

NEZ050>053-065>068-078-088>093-260400-
SOUTHEAST NEBRASKA

CITY           SKY/WX    TMP DP  RH WIND       PRES   REMARKS
LINCOLN        CLEAR     78  65  63 SE7       30.09R
OMAHA EPPLEY   PTCLDY    77  67  71 E3        30.07R
BEATRICE       CLEAR     74  65  73 CALM      30.09R
FALLS CITY     CLEAR     76  68  76 CALM      30.07R
NEBRASKA CITY  CLEAR     75  66  73 E5        30.08R
PLATTSMOUTH    CLEAR     76  68  77 E5        30.08R
$$

NEZ044-045-051>053-067-260400-
OMAHA AREA

CITY           SKY/WX    TMP DP  RH WIND       PRES   REMARKS
OMAHA EPPLEY   PTCLDY    77  67  71 E3        30.07R
BLAIR          PTCLDY    76  66  71 SE3       30.09R
FREMONT        CLEAR     76  64  65 E5        30.09R
MILLARD        CLEAR     75  67  76 CALM      30.08R
OFFUTT AFB     CLEAR     71  68  92 E5        30.07R
PLATTSMOUTH    CLEAR     76  68  77 E5        30.08R
WAHOO          FAIR      72  66  82 SE5       30.09R
$$




USA.gov is the U.S. government's official web portal to all federal, state and local government web resources and services.